[Iaude] MPEC T113: 2023 TQ3 [a=1.03,e=0.31,i=12.3,H=25.5]

mpec at marsden.cfa.harvard.edu mpec at marsden.cfa.harvard.edu
Sun Oct 8 21:53:45 EDT 2023


M.P.E.C. 2023-T113                              Issued 2023 October 9, 01:51 UT

     The Minor Planet Electronic Circulars contain information on unusual
         minor planets, routine data on comets and natural satellites,
         and occasional editorial announcements.  They are published
    on behalf of Division F of the International Astronomical Union by the
          Minor Planet Center, Smithsonian Astrophysical Observatory,
                          Cambridge, MA 02138, U.S.A.
			  
             Prepared using the Tamkin Foundation Computer Network

                              MPC at CFA.HARVARD.EDU
            URL https://www.minorplanetcenter.net/    ISSN 1523-6714

                                    2023 TQ3                                    


Observations:
     K23T03Q  C2023 10 05.54616503 20 47.042-16 05 28.09         21.13GVET113F52
     K23T03Q  C2023 10 05.55980503 20 49.835-16 05 11.81         21.37GVET113F52
     K23T03Q  C2023 10 05.57339403 20 52.614-16 04 55.02         21.26GVET113F52
     K23T03Q  C2023 10 05.58692103 20 55.410-16 04 38.09         21.30GVET113F52
     K23T03Q* C2023 10 08.51849203 39 25.754-14 33 23.97         20.05wXET113F51
     K23T03Q  C2023 10 08.53156903 39 31.642-14 32 47.12         20.77wXET113F51
     K23T03Q  C2023 10 08.54463303 39 37.556-14 32 09.29         20.20wXET113F51
     K23T03Q  C2023 10 08.55770803 39 43.521-14 31 30.81         20.31wXET113F51
     K23T03Q KC2023 10 08.62416403 40 22.14 -14 24 19.0          19.9 GVET113474
     K23T03Q KC2023 10 08.62667003 40 23.35 -14 24 11.3          19.9 GVET113474
     K23T03Q KC2023 10 08.62921903 40 24.62 -14 24 03.2          20.3 GVET113474
     K23T03Q KC2023 10 08.63168503 40 25.85 -14 23 55.8          20.3 GVET113474
     K23T03Q  C2023 10 08.63384203 40 18.998-14 27 38.31         20.20GVET113F52
     K23T03Q  C2023 10 08.63448003 40 19.328-14 27 36.15         19.72GVET113F52
     K23T03Q bC2023 10 09.03004603 44 24.35 -14 07 40.7          19.3 GVET113L01
     K23T03Q KB2023 10 09.03042603 44 27.23 -14 07 32.7          19.8 GVET113I93
     K23T03Q bC2023 10 09.03151903 44 25.19 -14 07 35.2          19.5 GVET113L01
     K23T03Q bC2023 10 09.03362303 44 26.33 -14 07 27.7          19.7 GVET113L01
     K23T03Q KB2023 10 09.03418303 44 29.36 -14 07 20.4          19.1 GVET113I93
     K23T03Q KB2023 10 09.03780403 44 31.41 -14 07 08.3          19.4 GVET113I93

Observer details:
474 Mount John Observatory, Lake Tekapo.  Observers A. C. Gilmore, P. M.
    Kilmartin.  Measurer P. M. Kilmartin.  0.6-m f/6.2 reflector + CCD.
F51 Pan-STARRS 1, Haleakala.  Observers J. Bulger, T. Lowe, P. Minguez, A.
    Schultz, I. Smith.  Measurers K. Chambers, T. de Boer, J. Bulger, J.
    Fairlamb, H. Gao, M. Huber, C.-C. Lin, T. Lowe, E. Magnier, P. Minguez, Y.
    Ramanjooloo, A. Schultz, I. Smith, R. Wainscoat, R. Weryk.  1.8-m Ritchey-
    Chretien + CCD.
F52 Pan-STARRS 2, Haleakala.  Observers J. Bulger, K. Chambers, T. Dukes, T.
    Lowe, P. Minguez, A. Schultz, I. Smith.  Measurers S. Chastel, J.
    Fairlamb, M. Huber, Y. Ramanjooloo, R. Wainscoat, R. Weryk.  1.8-m
    Ritchey-Chretien + CCD.
I93 St Pardon de Conques.  Observer F. Losse.  0.40-m f/3.7 reflector + CMO.
L01 Visnjan Observatory, Tican.  Observer K. Korlevic.  1.0-m f/2.9 reflector
    + CCD.

Orbital elements:
2023 TQ3                                                 Earth MOID = 0.0017 AU
Epoch 2023 Sept. 13.0 TT = JDT 2460200.5                Veres                   
M 264.13093              (2000.0)            P               Q                  
n   0.94360749     Peri.  102.17762     -0.54336788     -0.83590918             
a   1.0294576      Node    21.29554     +0.66308281     -0.48397279             
e   0.3125017      Incl.   12.32228     +0.51485196     -0.25889415             
P   1.04           H   25.55          G   0.15           U   7                  
Residuals in seconds of arc
231005 F52  0.0   0.0     231008 F51  0.2+  0.2+    231009 L01  0.0   0.9-
231005 F52  0.2+  0.1-    231008 474  0.2-  0.3-    231009 I93  0.1-  0.5+
231005 F52  0.0   0.0     231008 474  0.3-  0.1-    231009 L01  0.3+  0.4-
231005 F52  0.2-  0.0     231008 474  0.1+  0.3+    231009 L01  0.3-  0.0
231008 F51  0.1-  0.1+    231008 474  0.5+  0.3+    231009 I93  0.1-  0.3+
231008 F51  0.2-  0.2-    231008 F52  0.1-  0.0     231009 I93  0.0   0.3+
231008 F51  0.2-  0.1-    231008 F52  0.2+  0.1+

Ephemeris:
2023 TQ3                 a,e,i = 1.03, 0.31, 12                  q = 0.7078
Date    TT    R. A. (2000) Decl.     Delta      r    Elong.  Phase     V
2023 09 09    02 35 49.8 -16 54 02   0.2388  1.1693   127.9    42.9    24.4
...
2023 09 24    02 54 33.9 -17 18 10   0.1351  1.1015   134.0    41.0    23.0
...
2023 10 02    03 09 01.3 -16 50 37   0.08219 1.0617   135.9    41.0    21.9
...
2023 10 08    03 35 04.4 -14 54 12   0.04349 1.0305   134.7    43.6    20.5
2023 10 09    03 44 02.1 -14 06 04   0.03718 1.0252   133.7    44.8    20.2
2023 10 10    03 56 23.8 -12 55 47   0.03097 1.0198   132.0    46.7    19.8
...
2023 10 16    11 27 20.5 +25 24 58   0.01372 0.9873    43.9   135.5    22.5
...
2023 10 24    14 07 22.0 +21 16 43   0.06252 0.9430    33.0   145.0    27.0
...
2023 11 08    14 28 56.0 +17 34 58   0.1647  0.8599    34.3   139.5    28.1

M. P. C. Staff               (C) Copyright 2023 MPC           M.P.E.C. 2023-T113





More information about the Iaude mailing list